Theta_e
359 357 352 349 348 347 346 344 344 344 343 344 342 341 338 335 335 337 338 339 339 339 339 340 340 340 339 338 338 338 339 340 340 341 342 342 341 340 338 338 339 340 341 342 343 344 345 346 345 345 346 347 347 348 348 347 346 347 349 349 349 349 349 350 351 352 352 353 354 353 353 353 353 351 351 350 352 354 354 352 352 353 353 353 354
359 353 349 347 345 344 342 340 342 345 344 343 343 340 337 336 337 338 339 339 339 339 339 340 340 340 339 339 339 338 339 339 340 341 341 340 340 339 338 340 341 341 342 343 343 344 344 344 344 343 343 344 345 346 346 346 346 346 348 348 350 351 351 351 352 353 352 352 351 352 352 353 352 350 349 350 351 351 351 351 351 351 352 353 353
354 345 342 343 342 343 342 337 339 344 343 338 336 335 335 337 339 338 339 339 340 340 341 342 341 340 339 339 338 336 335 335 337 338 338 339 340 339 337 335 338 339 340 342 343 343 343 344 344 344 344 344 345 346 347 347 347 348 348 349 351 352 352 352 352 353 352 350 350 350 352 352 351 350 351 352 352 350 350 351 351 351 351 352 353
352 343 340 342 341 341 341 336 334 339 341 337 333 330 331 333 335 338 339 341 342 343 343 342 341 340 340 338 336 336 337 337 337 339 340 340 341 341 338 334 333 335 338 340 341 342 343 342 341 341 342 344 344 345 346 346 346 345 346 347 348 349 350 351 352 351 351 350 349 350 352 352 351 352 352 351 351 352 352 352 351 351 352 353 354
353 344 341 343 342 340 337 334 331 332 334 334 334 335 336 338 341 342 343 343 344 344 343 343 342 341 340 338 338 339 339 339 339 340 340 340 340 338 336 334 333 333 335 338 339 341 341 341 339 338 340 341 342 342 343 344 345 344 344 345 344 344 345 348 349 350 351 351 350 349 350 350 350 352 354 352 350 350 351 352 352 352 353 354 354
351 345 342 341 339 337 334 333 332 332 331 332 333 335 338 340 342 342 344 345 345 344 345 344 343 343 341 340 340 340 339 339 339 339 339 338 337 335 334 334 336 336 335 336 338 340 341 341 340 340 342 342 342 341 341 342 344 345 345 346 346 346 346 346 347 348 349 350 351 351 350 348 346 349 353 353 351 350 350 351 353 352 353 354 353
348 343 340 337 334 333 332 333 336 337 338 338 338 338 340 341 342 342 344 347 348 347 347 346 344 342 341 340 341 340 339 339 340 340 339 338 337 336 336 336 336 338 337 337 338 340 343 344 343 343 344 343 342 342 342 342 342 343 344 346 347 347 347 346 345 346 345 346 349 351 351 349 346 347 352 354 352 352 352 352 353 351 352 353 351
346 340 338 338 337 336 335 337 342 345 345 346 346 346 346 345 344 344 344 345 347 347 346 345 344 342 342 342 341 341 341 340 339 339 339 338 338 338 338 338 338 338 339 339 339 341 344 346 346 345 345 344 344 343 342 342 342 343 343 344 345 345 345 344 343 342 341 341 343 347 349 349 348 348 350 351 350 350 351 352 352 351 350 351 350
348 345 345 346 345 344 342 341 344 346 347 347 345 344 342 340 340 341 340 339 340 340 341 342 343 342 342 341 341 341 341 339 337 336 336 339 340 340 340 339 339 340 341 341 341 342 344 345 346 345 345 345 344 344 343 343 343 343 342 342 342 343 344 344 342 340 339 338 338 341 344 344 347 350 349 349 347 348 350 352 352 352 351 351 350
350 349 349 350 350 350 345 340 342 343 341 341 340 339 337 336 337 338 338 338 338 339 340 341 342 341 341 341 340 340 340 339 337 335 336 338 340 341 341 340 340 341 342 342 342 342 342 342 342 343 343 343 343 343 342 342 342 341 341 340 339 340 341 342 341 339 338 339 338 340 341 340 343 348 350 349 347 348 351 352 352 352 352 351 350
348 347 347 346 346 345 340 337 339 340 338 338 339 339 339 340 340 340 341 342 342 341 342 342 342 341 341 341 341 340 339 339 338 337 338 339 339 341 341 341 340 340 341 342 342 341 341 340 341 340 340 340 340 340 339 339 339 338 338 338 338 338 339 340 340 339 340 341 341 342 343 341 341 344 347 347 347 347 350 351 352 353 353 352 351
341 339 338 336 336 336 335 336 338 337 338 340 341 342 343 343 343 343 344 344 344 344 343 343 343 342 341 341 340 340 339 338 338 337 338 340 341 341 341 341 340 340 341 342 341 341 340 340 339 339 338 338 338 338 337 337 337 336 337 337 337 337 338 339 339 340 340 341 341 342 343 343 343 344 344 346 346 347 348 350 352 352 353 352 352
333 333 334 335 336 338 339 340 340 341 343 344 345 345 344 344 344 344 344 344 344 345 344 342 342 342 341 341 340 339 338 337 337 337 338 340 341 341 341 341 341 340 340 340 340 340 339 339 338 337 337 337 337 338 338 338 337 337 337 337 338 338 338 338 339 338 339 341 342 342 341 341 343 343 343 345 346 347 350 349 349 350 352 352 351
337 339 340 341 341 343 343 343 343 344 344 343 344 344 343 343 343 343 342 342 342 343 343 342 341 341 341 341 340 339 337 336 336 336 338 339 340 341 341 341 341 340 339 339 339 338 338 337 337 336 335 336 337 338 339 340 339 338 338 339 339 340 340 341 341 340 340 341 342 341 339 339 340 340 341 342 343 344 346 347 346 348 349 349 349
344 344 343 341 342 342 343 343 343 344 344 343 343 343 343 343 342 341 342 341 341 341 341 340 341 340 340 339 339 339 338 337 336 337 338 340 340 340 340 340 340 340 339 339 338 338 337 336 335 334 334 335 336 338 339 340 340 340 340 339 339 339 340 341 341 341 342 342 341 341 341 340 340 340 340 340 341 341 341 342 344 346 347 348 350
341 341 341 342 342 343 345 345 344 344 344 343 341 341 341 341 341 341 340 340 339 339 338 339 339 338 337 336 336 337 337 337 338 339 340 340 340 340 340 340 339 339 339 339 338 336 335 335 335 335 334 334 335 337 339 340 340 340 340 339 339 339 339 340 340 340 341 341 340 341 341 340 340 341 342 342 342 342 342 342 343 344 348 351 351
340 341 343 344 344 344 345 344 342 342 341 340 340 339 340 340 339 339 339 338 338 337 337 336 336 336 337 336 335 336 336 337 339 339 339 340 340 340 339 339 338 338 338 337 335 334 333 334 335 335 334 334 336 338 339 339 340 340 340 339 339 339 339 340 340 341 341 341 341 341 341 341 342 342 342 343 343 343 344 344 344 343 346 350 351
342 342 343 344 343 342 341 340 339 339 339 339 339 339 339 339 338 338 337 337 336 335 334 334 335 336 338 337 337 337 337 338 338 338 339 339 339 338 338 338 337 336 335 334 333 334 334 334 334 335 335 336 337 339 339 339 340 340 340 339 339 340 340 339 340 341 341 341 342 342 343 343 344 343 342 344 344 344 345 345 345 345 347 349 350
342 342 341 341 340 339 339 338 338 338 337 338 338 337 338 337 337 336 336 335 335 334 335 335 336 337 337 337 338 338 338 338 338 338 338 337 337 337 337 337 337 336 335 334 335 335 336 336 336 336 336 336 337 338 339 338 339 339 339 340 341 341 341 341 340 341 341 342 344 344 344 344 345 345 344 344 346 346 347 346 346 347 349 349 349
340 339 338 338 337 337 336 336 336 336 336 336 336 336 336 336 336 335 335 335 335 335 335 336 336 336 336 336 337 336 336 337 336 336 336 336 336 337 337 337 337 336 335 335 335 336 336 336 337 336 336 336 337 338 339 339 340 340 340 340 340 340 340 341 341 341 342 343 344 344 344 344 345 345 344 344 345 346 347 347 347 348 349 349 349
337 336 336 336 335 335 335 334 335 335 335 335 335 335 335 335 334 335 335 335 335 334 334 333 334 334 333 333 334 334 334 334 334 335 335 335 336 337 337 337 336 336 336 336 336 336 336 337 337 336 337 338 339 340 340 340 340 340 340 340 340 339 339 340 341 341 342 342 343 343 343 343 343 344 343 343 344 344 344 347 348 349 349 349 350
336 335 335 334 334 334 334 334 334 334 333 333 333 333 333 333 333 333 333 333 332 332 331 331 331 332 332 332 333 333 334 334 335 335 336 336 337 337 337 337 336 336 337 336 336 336 336 337 337 337 338 339 339 340 340 340 340 340 340 340 340 339 339 339 340 341 341 342 343 343 343 343 343 343 343 343 344 343 344 346 348 349 348 349 349
334 333 333 333 333 333 333 332 333 332 332 332 331 331 331 331 331 331 331 331 331 331 331 332 332 333 333 334 335 335 335 336 336 336 336 337 337 337 337 337 337 337 337 337 336 337 337 337 337 338 339 339 340 340 339 339 340 340 339 339 339 339 339 339 340 340 341 342 342 342 342 343 343 343 344 344 344 343 344 346 347 346 347 346 348
332 332 332 332 331 331 331 331 331 331 331 331 330 330 329 329 330 330 331 332 333 332 333 334 334 335 335 335 335 336 336 336 336 336 336 336 337 336 336 336 336 336 336 337 336 336 337 337 337 337 338 338 337 337 337 337 338 338 338 337 337 338 339 339 340 340 340 341 341 341 342 342 342 343 343 343 344 343 344 344 345 345 346 347 349
330 331 330 330 330 329 329 329 329 329 330 330 330 330 329 330 331 332 332 333 333 334 335 335 335 336 335 335 336 336 336 336 336 336 336 335 335 335 335 335 335 335 335 335 335 335 335 334 334 334 334 334 334 334 335 336 336 336 336 336 336 337 338 339 340 340 339 340 341 341 342 342 343 343 344 343 344 344 344 344 344 345 346 347 348
330 329 329 328 328 327 328 328 328 329 330 330 330 330 330 331 332 332 333 333 334 334 335 335 335 335 335 335 336 336 336 335 335 335 334 334 335 334 335 335 334 334 333 333 333 333 332 332 332 332 333 333 334 334 335 336 336 337 337 337 337 337 337 338 339 339 338 339 341 341 342 343 343 343 344 344 343 344 345 345 345 345 345 346 347
328 328 328 327 327 328 328 328 328 329 330 329 330 330 331 331 332 332 333 333 334 334 335 335 335 335 335 335 334 334 334 333 333 333 333 333 332 332 332 332 331 331 331 331 330 330 331 331 332 333 334 334 335 335 336 337 338 338 338 338 338 338 338 338 338 338 338 339 341 342 342 342 343 343 343 344 344 345 345 345 345 345 346 345 346
327 327 327 328 328 328 327 326 327 328 329 329 329 329 330 331 331 332 333 334 335 335 334 334 334 334 333 333 332 332 331 330 330 330 329 329 328 328 328 329 329 329 329 329 329 329 331 331 332 333 334 334 335 336 338 339 339 339 339 339 339 339 339 339 339 339 339 341 342 342 342 343 343 343 343 343 344 344 345 344 344 344 344 344 344
327 326 327 327 327 327 326 326 326 328 329 329 329 330 330 331 332 333 334 334 334 334 333 332 331 331 330 329 328 328 327 326 326 326 326 326 326 326 327 327 328 329 329 329 330 330 331 332 333 333 333 334 334 336 338 339 339 339 339 340 340 341 341 341 341 341 342 342 342 342 342 343 343 343 343 343 344 343 343 343 342 343 342 342 341
326 326 326 326 326 326 326 326 327 328 328 328 329 330 331 332 332 333 333 333 333 332 330 330 329 328 327 325 324 323 323 323 324 324 325 325 325 326 327 327 328 329 330 330 330 331 331 332 332 332 333 333 335 336 337 338 339 338 339 340 341 341 341 341 341 341 341 342 342 341 341 341 342 342 342 342 342 341 339 338 339 339 339 339 338
325 326 326 325 326 327 326 327 327 327 327 328 329 330 331 332 333 332 332 331 330 329 328 327 326 324 323 322 322 322 321 322 322 323 324 325 325 325 326 327 328 329 331 332 332 333 333 332 331 332 332 333 335 336 337 339 338 337 338 339 339 338 339 340 340 340 340 341 340 340 339 339 339 339 338 338 338 336 335 334 334 335 335 335 334
325 325 325 325 326 326 326 326 326 327 328 329 329 330 332 332 332 331 330 328 327 326 325 324 323 322 321 321 321 321 321 321 322 322 323 324 324 325 326 327 328 329 330 332 332 332 331 329 329 330 332 333 334 335 337 337 336 334 336 336 335 335 337 337 336 337 338 339 338 337 337 336 335 334 332 332 333 332 331 331 331 331 331 331 330
325 325 325 325 325 325 325 326 326 327 328 329 330 331 331 330 330 329 328 326 325 324 323 322 321 320 320 320 320 320 320 321 322 322 323 323 323 324 325 326 327 327 328 328 329 328 328 327 327 329 330 331 331 332 332 332 332 332 332 331 331 331 332 332 332 333 333 333 333 332 331 330 330 328 327 328 328 328 328 328 328 327 327 326 325
324 324 324 324 325 325 326 326 327 328 329 329 329 329 329 328 328 327 325 324 323 322 321 321 320 320 319 319 319 319 319 320 321 322 322 322 322 323 323 324 325 325 325 326 326 326 326 326 326 327 327 327 328 328 329 329 329 329 328 328 327 328 328 328 329 329 328 328 328 327 326 326 326 325 324 324 325 324 324 324 324 323 321 321 321
324 324 324 324 325 325 326 326 327 328 329 328 328 328 327 326 325 324 323 322 321 321 321 320 319 319 318 318 318 318 318 318 319 320 321 321 321 322 322 322 322 323 323 323 323 324 324 324 324 325 325 325 326 326 326 326 326 326 326 325 325 326 326 327 327 327 327 326 325 325 325 325 325 324 323 323 323 323 323 322 321 320 318 317 317
324 324 324 325 325 326 326 327 328 327 328 327 327 326 325 324 323 322 321 321 320 320 320 320 319 319 318 317 317 317 317 317 318 319 319 320 320 320 320 320 320 320 321 321 321 321 322 322 323 324 323 324 324 324 324 324 324 323 324 324 324 324 324 325 325 325 325 325 324 324 324 324 323 323 323 322 322 322 321 320 319 317 316 315 315
324 324 325 325 326 327 327 328 327 327 326 326 325 324 323 322 321 321 320 320 320 320 319 318 318 317 316 316 316 316 316 316 316 317 318 318 319 319 319 319 319 319 319 319 320 320 320 321 321 322 322 322 322 322 322 322 322 322 322 322 323 323 323 323 323 323 322 322 322 322 321 321 320 321 321 321 321 320 319 318 317 315 315 315 315
324 324 325 325 326 326 326 326 326 325 325 324 323 322 322 321 321 321 320 320 320 319 318 317 316 316 316 316 315 315 315 315 315 316 316 316 317 317 317 318 318 318 319 319 319 319 320 320 320 320 320 320 320 320 320 320 320 320 320 320 320 320 320 320 320 320 320 319 320 320 320 320 319 319 319 319 318 318 317 316 316 315 315 314 314
324 324 324 325 325 325 325 325 325 324 323 323 322 321 321 321 320 320 320 320 319 318 317 317 317 318 318 318 317 316 316 315 315 315 315 315 315 315 316 316 316 316 317 317 318 318 318 318 319 319 319 319 318 318 318 318 318 318 318 317 317 317 317 317 317 317 317 316 317 317 317 317 316 316 316 315 315 315 315 315 314 314 313 313 312
323 323 323 323 324 324 324 324 323 323 322 321 321 321 321 320 319 319 319 319 319 317 317 318 319 319 320 319 319 318 318 318 317 316 315 315 314 314 314 315 315 315 315 315 316 316 317 317 317 317 317 317 317 316 315 315 315 314 314 313 312 312 311 311 311 311 310 310 311 311 311 311 311 311 310 311 311 311 311 311 311 310 309 309 309
322 322 322 323 322 322 322 322 322 321 321 320 321 321 320 319 319 318 318 318 318 317 318 318 319 319 319 319 319 319 319 319 319 318 318 317 316 314 313 313 314 314 315 314 314 315 316 316 316 315 315 314 313 313 313 313 312 312 312 312 312 311 312 312 312 311 311 310 310 310 310 311 311 311 311 311 311 311 311 311 311 310 310 310 310
321 321 321 321 321 321 321 320 320 320 320 320 320 319 318 318 318 317 318 318 318 318 319 319 319 319 319 319 319 319 319 319 319 318 318 317 317 316 315 314 313 313 313 313 313 313 314 314 314 314 313 312 312 312 313 314 313 313 313 313 313 313 313 313 314 313 313 313 313 313 312 312 312 312 312 312 312 312 312 312 312 312 313 313 313
321 321 320 320 320 320 320 319 319 319 319 319 319 318 317 317 317 318 318 319 319 319 319 319 319 319 318 318 318 318 318 317 317 316 316 316 315 315 315 314 313 312 312 311 311 311 311 311 311 312 312 311 311 311 311 312 312 312 312 312 313 313 313 312 311 310 310 311 311 311 311 310 311 311 311 311 311 311 311 311 311 311 311 312 313
320 320 319 319 319 318 318 318 317 317 317 318 317 317 317 317 318 318 319 318 318 318 318 318 318 318 318 318 317 317 316 316 315 315 314 314 314 313 313 312 311 311 311 310 310 309 309 309 309 309 310 310 310 310 310 310 310 310 311 312 313 314 314 314 314 313 312 312 312 312 312 311 312 312 312 313 313 312 312 312 313 313 314 315 316
319 319 319 318 318 317 317 317 317 317 317 317 317 317 317 318 318 318 318 317 317 317 317 317 317 317 317 317 317 317 317 316 316 315 315 314 314 313 312 311 310 310 310 309 309 309 309 309 309 309 309 309 309 309 309 309 309 309 310 310 311 313 314 315 316 316 315 315 314 314 314 315 315 315 315 315 314 314 314 315 315 315 316 316 315
319 318 318 317 316 316 316 316 316 316 316 316 316 316 316 316 316 316 316 316 316 316 316 316 316 316 316 317 317 317 317 317 316 316 315 314 314 313 311 310 310 310 310 310 310 310 310 310 310 310 310 310 310 310 310 310 310 310 310 311 312 313 315 315 316 316 315 315 314 314 315 315 316 316 316 316 315 315 316 316 316 316 316 314 312
318 317 316 315 316 316 317 317 317 317 317 317 317 317 317 317 317 317 317 317 317 317 316 317 317 316 316 316 316 316 316 316 316 315 314 313 313 313 312 311 310 309 308 309 309 309 309 309 309 309 309 309 309 309 310 310 310 310 310 310 310 310 311 312 313 313 313 313 314 314 314 315 315 315 315 315 314 314 315 314 314 314 314 312 310
318 317 317 316 317 317 317 318 318 318 318 318 318 318 318 318 319 318 318 318 318 317 317 317 317 317 316 316 314 313 313 312 312 311 310 309 309 309 309 310 309 308 307 306 306 306 306 306 306 306 306 306 306 307 307 307 307 307 307 307 307 307 307 308 308 309 310 311 312 312 311 312 312 314 314 315 315 314 313 313 313 313 313 312 311
319 318 318 318 318 317 317 317 317 317 317 317 317 317 317 318 318 318 318 318 318 318 318 317 317 317 317 316 315 314 312 311 309 308 307 307 308 308 308 307 307 306 305 305 305 305 305 305 305 305 305 305 305 305 305 305 305 306 305 305 305 305 305 306 307 309 310 312 313 313 313 313 313 313 313 313 313 312 312 312 312 312 312 311 311
319 318 318 317 317 316 316 316 317 317 317 317 317 317 317 317 318 318 318 319 319 319 319 318 318 318 318 317 315 315 314 314 313 312 311 311 311 312 312 310 309 308 307 306 305 305 305 306 306 306 306 306 306 306 306 306 306 306 306 306 306 305 305 306 307 308 309 311 312 313 312 313 313 313 312 311 311 311 312 313 314 314 314 313 312
317 317 316 316 316 317 317 317 317 317 318 318 318 318 318 318 318 318 318 318 318 319 319 319 319 319 319 318 317 315 315 315 315 315 315 315 315 315 315 314 313 312 310 308 306 305 305 306 306 306 306 306 306 306 307 307 307 307 306 306 306 306 306 306 306 307 308 308 309 308 307 307 308 309 310 312 313 312 311 312 313 313 313 313 312
Wind_Speed
23 23 22 20 16 15 13 12 13 15 18 21 21 19 17 15 13 13 14 15 16 18 19 20 21 21 20 20 19 19 19 19 20 21 23 24 25 26 27 26 26 26 26 26 26 26 25 24 25 25 24 24 25 25 25 26 26 25 25 24 24 26 28 30 32 34 36 33 31 31 28 25 25 25 25 23 22 24 26 27 28 24 22 25 27
23 23 21 20 19 17 16 14 11 14 20 22 22 22 19 16 14 15 17 19 22 22 21 21 21 21 21 20 20 20 21 22 24 26 27 28 28 28 28 27 26 26 26 26 26 26 27 27 26 25 25 25 25 25 26 25 25 26 26 26 26 27 27 29 31 33 36 35 33 34 33 29 28 28 28 28 28 29 28 28 27 25 25 26 28
23 22 20 19 19 18 18 18 15 16 20 22 22 21 19 16 17 18 20 22 24 23 21 20 21 21 22 23 24 25 26 27 28 29 30 30 30 29 28 27 28 28 28 28 27 27 28 28 27 25 24 24 24 24 24 25 25 26 26 25 25 27 29 29 30 31 33 34 33 34 34 32 31 30 28 28 29 31 31 28 27 27 28 27 28
23 22 20 19 19 19 19 18 16 17 20 22 21 20 19 19 20 21 22 25 25 25 24 22 22 23 25 27 28 28 27 26 26 26 27 28 29 30 31 30 29 29 29 29 29 29 29 29 29 28 27 26 27 26 26 26 26 26 27 27 26 27 28 30 30 31 32 34 33 32 31 32 31 29 28 29 29 29 30 30 30 29 27 27 28
24 22 20 19 19 19 18 17 16 16 18 20 20 19 19 19 21 22 23 25 27 28 28 27 27 27 29 29 28 27 26 27 27 27 27 29 31 33 34 33 31 30 30 30 30 30 30 30 30 30 29 29 29 30 29 28 27 27 27 27 28 28 28 30 31 30 30 32 33 32 30 30 29 28 29 31 32 32 31 31 31 29 27 28 28
23 21 19 19 18 17 17 17 17 16 17 19 20 20 21 22 23 25 26 27 29 30 31 30 29 29 30 30 29 29 30 31 31 31 31 32 33 33 32 32 32 31 31 31 31 31 31 31 30 30 30 30 30 30 30 29 28 28 27 27 27 27 28 30 31 29 29 31 32 31 30 30 31 31 30 31 32 33 33 32 31 29 28 29 29
20 19 18 17 17 16 16 17 17 18 19 20 21 22 23 25 27 28 28 29 31 31 31 30 29 30 30 31 32 33 34 34 33 32 32 32 31 31 30 31 32 32 31 31 31 30 30 30 30 30 30 30 30 30 30 30 30 29 29 28 27 28 29 30 30 29 30 31 31 31 31 31 33 33 32 30 30 32 33 33 33 31 31 31 31
17 16 16 15 16 16 16 16 17 18 19 21 22 24 25 27 28 29 29 30 31 32 31 30 29 30 31 32 33 33 34 34 34 34 33 32 31 30 30 29 30 30 30 30 30 29 29 29 29 29 29 29 29 30 30 30 30 30 30 29 29 28 29 30 31 30 30 31 32 32 32 33 33 33 33 31 31 32 33 34 35 35 35 35 33
14 13 13 14 15 16 17 18 18 19 21 22 23 25 27 28 28 29 29 30 31 31 30 30 30 31 32 32 33 34 34 34 34 33 32 31 30 29 29 28 28 29 29 29 29 28 28 29 29 28 27 27 28 28 29 29 29 30 30 30 30 30 30 31 33 34 33 33 34 34 33 34 34 33 34 33 33 33 33 34 35 35 35 36 34
11 12 13 15 16 17 19 19 19 20 21 22 24 26 27 27 27 28 29 29 29 29 30 30 31 32 33 34 34 33 33 33 32 31 30 30 30 29 29 29 29 29 29 29 29 29 29 29 29 29 28 28 29 29 30 30 30 31 32 32 32 33 33 34 35 35 36 35 35 34 34 36 35 33 33 32 31 31 31 32 33 33 32 34 34
10 12 14 15 16 17 19 19 18 20 21 23 24 25 25 26 26 27 28 28 29 30 31 32 33 33 33 33 33 32 32 31 30 30 30 30 30 30 30 30 30 30 30 30 30 30 30 30 30 30 30 30 31 31 32 32 32 33 33 33 33 34 35 36 37 37 37 37 36 34 34 36 36 34 33 31 30 30 30 31 32 32 31 33 35
10 12 14 15 16 17 18 19 19 21 22 22 23 23 24 26 27 28 29 30 31 31 32 32 32 33 33 33 33 32 32 31 31 30 30 30 29 30 31 30 30 30 30 30 30 30 31 31 30 30 31 31 32 32 33 33 33 33 33 33 33 34 34 36 37 38 38 38 38 36 35 35 35 34 33 31 31 31 30 30 30 31 31 33 34
12 14 15 16 17 18 18 19 20 20 21 22 24 25 26 27 28 29 30 30 30 31 32 32 32 32 32 32 32 32 32 32 31 31 30 30 29 30 30 30 30 31 31 32 32 32 32 32 32 32 33 33 33 33 33 33 33 33 33 33 33 34 34 34 35 36 37 38 40 40 39 38 38 36 33 30 29 31 31 30 30 30 31 33 34
13 14 15 16 17 18 18 19 20 22 22 24 25 26 28 28 28 29 30 29 29 29 30 30 31 31 31 31 31 32 32 32 32 31 30 29 29 29 30 30 30 31 32 32 32 33 32 32 33 34 34 34 34 33 32 32 32 32 33 33 33 34 34 34 34 34 35 37 39 41 41 41 41 41 39 35 33 34 34 33 32 32 34 35 34
12 13 15 17 18 19 20 21 22 23 24 24 25 26 27 27 27 27 28 28 28 29 30 30 30 30 30 30 31 31 30 30 30 29 29 29 29 29 30 30 31 32 33 33 32 33 33 33 34 35 35 35 34 34 33 32 32 32 33 33 34 35 36 37 36 36 36 37 38 40 40 39 40 42 41 39 38 39 38 37 37 37 36 35 34
14 15 17 18 18 19 19 20 21 22 23 24 24 24 25 26 26 26 27 28 29 29 30 29 29 29 30 30 31 32 31 30 29 28 28 28 28 29 30 30 31 32 33 32 32 32 33 33 34 35 35 35 34 33 33 33 33 34 34 35 36 37 38 39 38 38 38 38 39 40 39 38 38 38 37 37 38 38 37 37 38 38 37 35 35
15 16 17 17 17 18 19 20 21 22 24 24 24 24 25 25 26 26 27 28 29 29 30 30 30 30 30 29 30 31 31 30 29 28 28 27 27 28 30 30 31 33 33 33 33 34 35 35 35 35 36 35 34 32 31 32 33 34 34 35 36 38 39 39 38 37 36 37 38 38 38 37 36 35 34 33 33 34 35 37 38 40 38 36 36
14 15 16 16 18 19 20 21 22 22 24 24 24 24 24 25 26 26 26 28 29 30 31 30 30 29 28 28 28 29 29 29 29 28 27 27 28 29 30 31 33 34 35 34 34 34 35 35 35 35 36 35 34 32 31 32 33 33 34 36 38 39 39 38 37 37 37 36 36 37 36 35 34 34 33 31 30 31 34 37 39 40 38 36 37
13 15 17 18 19 19 20 20 21 22 23 24 24 24 24 25 26 26 27 29 30 30 29 28 28 27 27 28 27 27 28 29 29 29 29 29 29 30 31 32 33 34 33 33 32 32 33 33 33 34 34 34 34 33 32 32 33 34 34 35 37 37 36 35 36 38 37 35 34 34 35 34 34 34 33 30 29 31 34 36 38 39 38 38 39
15 17 19 19 19 19 20 20 21 22 23 24 24 24 24 25 26 27 28 28 29 30 29 28 28 28 28 28 27 27 28 29 29 29 29 29 28 29 29 30 31 32 31 31 31 31 32 33 33 33 34 33 32 31 30 31 32 34 34 35 36 36 34 34 35 36 34 33 33 33 33 33 34 34 34 33 32 34 36 36 37 40 41 41 41
16 18 19 19 20 20 20 20 21 23 23 23 24 24 25 26 27 27 27 27 28 29 30 30 30 30 30 29 28 28 28 28 28 28 27 26 26 26 27 28 29 30 31 31 31 31 31 31 31 31 31 31 30 31 32 33 35 37 37 37 39 38 36 35 36 35 33 33 33 33 33 33 34 35 35 35 33 33 35 37 38 41 43 43 42
17 18 18 19 20 21 21 22 23 24 23 23 24 25 26 26 27 27 27 27 28 29 30 29 29 29 29 28 28 28 27 26 26 25 24 24 25 25 26 27 27 29 32 33 33 33 33 33 33 33 33 33 35 36 38 39 39 39 38 40 41 39 37 37 36 35 36 35 34 33 33 33 33 34 33 33 33 31 31 34 36 36 38 40 40
18 19 20 20 20 21 22 22 23 23 23 24 25 26 26 27 27 27 26 26 27 27 27 27 26 27 27 26 25 25 24 24 24 24 24 24 24 24 25 26 28 31 34 35 36 36 36 37 38 38 37 38 39 41 41 41 40 39 40 42 42 39 37 36 35 35 36 35 34 34 33 32 32 32 30 29 30 28 26 27 28 29 31 32 33
20 20 20 21 21 21 22 22 23 23 23 24 24 25 26 26 26 25 24 24 25 26 26 25 25 25 25 26 25 24 23 23 24 23 23 24 25 26 27 29 31 33 35 37 38 39 40 41 41 41 41 41 43 44 44 44 45 45 45 45 44 40 37 36 36 35 34 34 34 34 34 32 32 32 30 28 26 26 25 25 26 26 27 28 30
20 20 21 21 22 23 23 23 24 24 23 23 23 24 24 24 23 22 22 23 24 25 24 24 23 24 24 25 25 23 23 23 24 25 25 26 29 31 32 34 34 35 37 40 41 42 43 42 41 40 40 41 42 42 44 45 45 46 46 45 43 41 40 37 35 34 33 34 34 33 32 31 30 29 28 27 26 25 24 25 26 26 26 28 30
20 21 23 23 23 23 23 22 22 22 22 22 22 22 22 22 22 22 22 23 24 24 25 25 26 25 24 24 24 25 26 28 29 30 30 31 33 35 36 36 36 36 38 40 42 43 42 40 39 38 38 38 38 37 38 39 39 39 39 39 38 38 39 38 37 36 34 33 32 31 30 29 27 25 24 25 25 24 22 23 25 25 24 26 26
23 23 24 23 22 20 21 22 22 21 22 22 21 21 21 22 23 23 24 25 25 25 26 27 27 26 25 25 27 29 30 31 32 32 32 33 34 35 36 37 37 38 39 40 40 40 38 37 36 35 35 34 33 32 32 33 33 32 31 31 32 33 34 35 36 35 34 32 30 29 28 26 23 22 23 21 19 18 19 21 22 22 23 23 23
24 23 21 20 20 20 22 24 24 23 22 21 21 22 23 23 23 24 25 27 26 25 24 23 23 23 24 26 28 29 30 30 30 31 32 33 34 35 36 36 36 37 38 38 37 37 36 35 34 33 34 32 30 29 28 28 27 26 25 25 26 25 24 24 26 27 27 27 27 26 25 23 21 21 22 20 17 17 18 18 18 19 19 18 17
24 23 21 21 22 21 22 23 22 21 20 20 21 22 22 23 25 25 22 21 21 20 18 18 19 20 22 23 25 27 29 29 29 29 29 29 29 30 32 33 34 35 35 33 33 33 33 33 32 32 32 30 28 26 25 24 23 23 20 18 18 18 18 18 18 19 20 22 24 24 23 23 21 20 20 18 16 14 13 13 12 13 13 13 13
23 23 22 21 21 20 21 21 19 19 20 20 22 23 23 24 25 20 13 12 14 15 16 17 19 20 21 22 23 25 26 28 29 27 26 25 24 24 26 28 28 29 29 27 27 28 29 29 28 28 27 25 21 20 20 21 21 19 16 14 13 14 16 17 17 17 17 18 19 19 17 17 17 16 15 14 12 11 9 8 9 9 9 9 10
21 21 21 20 19 19 20 20 20 20 20 20 22 23 21 18 15 10 9 11 12 13 15 17 19 20 21 21 21 21 22 26 28 27 25 23 20 19 21 24 25 25 24 21 21 21 20 18 16 14 11 8 5 6 9 9 7 7 8 10 9 9 10 10 9 10 11 11 11 11 9 9 10 10 10 11 10 9 9 8 8 8 7 8 8
19 20 20 19 19 19 20 21 21 19 19 19 19 17 14 11 9 10 12 14 13 14 17 19 20 19 18 17 18 19 20 22 24 23 20 15 12 12 14 16 15 14 11 8 5 3 1 4 7 7 6 8 9 7 5 7 11 12 9 7 6 6 5 4 3 5 6 5 5 5 5 6 7 8 10 11 11 11 11 11 10 10 11 13 13
18 19 19 19 20 20 20 20 18 16 17 18 15 11 10 10 10 9 10 12 14 16 18 19 18 17 16 16 17 18 18 17 16 13 10 8 9 11 13 13 12 13 15 17 16 16 17 17 17 17 16 17 16 15 15 16 16 14 14 15 16 15 13 11 11 12 11 10 10 12 12 12 13 15 16 16 16 17 18 18 19 19 21 21 21
18 18 18 19 19 18 16 15 15 15 16 14 10 9 10 10 10 8 8 10 12 15 17 18 17 16 18 20 20 19 19 18 15 13 13 15 18 20 21 22 23 24 26 27 27 26 25 24 24 24 24 24 24 23 23 24 23 22 23 24 24 24 24 23 23 24 25 24 24 25 25 24 23 23 23 23 24 25 24 25 25 26 26 25 25
17 18 17 16 15 15 15 15 15 14 11 9 9 9 9 9 9 9 10 11 12 14 16 17 17 18 21 22 23 23 24 23 20 20 20 22 24 26 27 30 31 31 31 31 31 30 30 30 29 29 29 30 30 30 29 29 29 29 29 29 29 29 29 28 29 29 30 30 29 29 27 26 25 24 24 25 26 26 25 25 27 28 27 26 26
16 16 15 15 15 15 15 13 10 8 7 7 8 9 9 9 10 12 13 13 13 14 16 17 18 19 21 24 26 27 28 29 28 27 28 29 30 31 34 35 35 33 33 33 33 33 34 34 33 33 33 33 33 33 32 32 32 31 31 31 32 31 31 31 30 30 29 29 27 26 25 25 24 23 23 24 25 26 26 28 29 28 26 24 24
14 15 16 15 15 13 11 9 8 8 8 9 9 10 11 11 12 13 14 14 16 17 19 21 24 25 27 30 31 31 32 34 35 35 35 35 36 37 38 38 36 35 35 35 35 36 37 37 37 36 35 35 35 35 34 34 33 32 32 32 32 31 31 30 29 29 28 27 26 25 26 26 26 26 28 29 30 29 28 28 28 27 25 24 24
14 15 14 13 12 10 8 8 8 9 10 10 11 12 13 13 14 16 17 18 19 22 25 29 32 33 34 34 35 35 35 37 39 41 41 42 42 42 41 40 39 39 38 37 38 38 39 39 40 39 39 38 38 38 38 37 37 37 36 35 34 32 31 30 29 29 30 29 29 28 27 27 27 27 28 28 28 27 26 26 25 25 24 23 23
13 13 12 11 10 9 8 8 9 10 11 11 12 14 15 15 16 18 20 21 23 25 28 29 30 29 27 28 30 32 34 37 39 41 42 43 43 43 43 42 42 42 40 39 39 41 41 41 40 40 40 39 39 39 38 38 38 37 35 35 34 33 31 30 30 30 30 30 30 29 28 28 28 28 28 27 27 26 25 25 23 22 22 22 22
12 11 10 9 9 8 8 8 9 11 11 11 13 15 17 17 18 20 22 23 24 24 25 27 26 24 23 23 24 26 29 32 35 37 39 41 41 41 41 42 41 41 40 40 40 41 42 41 40 40 39 39 38 37 37 36 35 34 33 33 33 33 32 31 31 31 31 31 30 30 29 28 27 26 25 25 24 23 22 22 21 20 20 20 20
11 11 10 9 9 10 9 9 11 12 13 13 15 17 18 18 20 23 24 25 25 24 24 25 24 23 23 23 23 24 27 28 28 30 33 35 36 37 38 39 38 38 38 38 38 39 39 39 39 39 39 38 38 38 37 37 36 35 34 34 34 33 32 31 30 30 29 29 29 28 27 25 23 22 21 20 20 20 19 19 18 18 17 17 16
12 13 12 12 12 12 12 12 12 14 14 15 17 19 20 21 24 26 27 28 28 29 28 28 26 25 25 26 26 26 27 27 26 26 27 28 29 30 31 33 34 34 34 34 34 35 35 35 36 35 35 35 35 35 36 36 35 33 32 32 31 30 29 28 27 26 25 24 24 23 22 21 20 19 18 17 17 17 16 15 15 14 14 13 12
13 14 15 15 14 15 15 15 16 17 17 18 19 21 23 25 27 28 29 30 31 30 30 29 27 26 26 26 25 25 25 25 25 25 26 26 26 25 26 26 27 28 29 30 31 31 32 32 32 32 31 31 31 31 31 31 30 30 29 28 27 26 25 24 23 22 21 21 20 18 17 17 16 15 15 14 13 13 12 12 11 11 11 11 10
15 16 17 17 18 19 20 21 21 22 22 22 23 24 26 27 27 28 28 30 30 29 28 27 24 23 23 22 22 22 23 23 24 24 24 24 24 23 23 23 24 24 25 26 26 27 28 28 28 28 27 27 27 26 26 26 25 25 25 24 23 23 22 21 20 19 18 17 16 15 15 15 15 14 13 12 11 10 11 11 10 10 10 9 8
18 19 20 21 22 25 26 26 26 27 27 27 27 27 27 26 26 26 26 27 27 26 25 24 22 22 22 21 21 21 21 21 21 21 21 21 22 21 21 22 22 23 23 23 22 22 23 23 22 22 22 22 21 21 20 20 20 20 19 19 19 20 20 18 17 16 15 14 13 12 12 13 13 12 11 10 10 11 12 11 10 9 7 6 5
19 21 23 25 27 28 29 29 29 30 30 30 29 28 27 26 26 26 25 24 23 22 22 21 21 20 20 19 19 19 19 19 19 19 19 19 20 20 20 21 21 21 21 20 20 20 20 20 20 20 19 19 18 18 17 17 16 16 16 16 16 15 15 14 12 12 12 12 12 11 11 11 10 10 9 9 10 10 10 8 7 6 5 5 5
21 23 25 27 29 29 29 29 29 29 29 29 28 27 26 24 24 24 23 22 20 18 18 18 19 19 19 18 17 16 16 16 16 17 17 18 18 19 19 20 20 20 19 19 18 18 19 18 18 18 18 17 17 16 16 15 14 14 13 13 13 12 11 10 8 8 9 9 9 9 8 9 9 10 10 10 9 9 8 8 8 8 7 8 8
21 22 23 25 27 27 27 27 27 26 26 25 24 23 21 20 20 20 19 17 16 15 15 16 16 17 17 17 17 18 17 17 16 17 17 17 18 18 18 19 19 18 19 19 19 19 18 18 18 17 17 16 16 15 14 14 13 13 12 12 12 11 10 8 7 8 10 11 10 10 9 9 9 9 10 9 8 8 8 8 9 8 6 7 8
18 19 21 23 23 24 24 24 23 21 20 19 19 19 19 19 19 17 15 14 13 14 14 14 15 16 16 16 16 17 18 18 19 19 19 19 19 20 20 20 20 19 19 19 19 19 19 18 18 18 17 17 16 16 15 15 15 15 14 14 13 12 11 9 9 10 12 13 13 12 12 12 11 10 9 9 8 7 8 8 8 8 7 7 8
18 18 18 19 19 19 19 19 18 17 17 16 16 16 16 16 16 15 14 13 13 14 14 14 14 15 16 16 16 16 16 17 17 18 19 20 20 20 20 20 20 20 20 20 19 19 19 19 19 18 18 18 17 17 17 17 17 17 16 15 14 13 12 11 10 9 10 11 10 9 8 9 8 8 9 10 9 8 8 8 8 8 7 8 8
16 16 16 15 15 16 15 15 14 14 14 13 13 13 13 14 14 14 13 13 13 13 13 13 13 13 14 14 15 15 16 16 16 16 16 17 17 18 18 18 18 19 19 19 19 19 19 19 19 18 18 18 18 17 17 16 16 16 15 14 13 13 12 11 10 9 9 10 9 8 8 8 7 7 8 10 10 9 8 7 8 8 6 6 7
Wind_Direction
209 212 213 215 220 220 226 240 246 245 243 248 254 252 252 254 252 259 266 265 265 269 275 276 275 277 280 280 280 279 279 279 276 274 274 274 276 277 279 279 276 275 275 273 271 272 272 272 273 274 274 276 277 275 274 272 269 267 266 270 272 269 267 267 269 271 272 268 265 267 270 267 264 264 262 261 260 258 256 257 256 254 250 247 247
215 218 219 220 224 228 233 238 241 243 245 250 254 256 258 255 250 257 262 261 266 273 278 278 276 277 278 277 276 277 278 277 274 272 273 275 276 277 280 280 278 276 276 275 273 273 274 274 275 274 273 274 275 274 275 275 275 274 272 271 272 272 271 270 271 271 272 271 269 270 272 268 266 268 266 263 263 262 262 262 262 260 254 249 249
221 224 227 231 236 239 244 246 246 244 246 253 258 260 259 252 248 254 260 266 272 275 277 277 275 274 272 271 273 277 280 280 278 278 279 280 280 279 281 282 279 275 272 272 271 271 272 273 273 274 274 274 273 272 272 272 273 274 275 274 274 274 273 273 273 272 272 273 271 271 272 271 271 271 267 262 263 264 265 265 266 264 258 252 253
225 229 233 238 243 245 248 252 252 246 248 255 261 264 262 258 259 261 266 271 273 274 276 275 272 269 267 271 277 283 287 287 285 284 282 281 281 283 286 287 284 279 274 271 270 269 268 269 270 270 269 268 268 268 268 270 273 273 273 272 273 274 275 275 276 275 273 273 273 273 272 272 273 272 267 264 264 263 263 263 264 262 257 253 253
225 233 238 242 246 250 253 258 260 256 254 255 257 261 263 264 266 268 269 272 273 275 277 277 274 271 270 275 281 284 285 285 284 282 278 276 277 280 283 285 284 281 277 274 272 271 270 270 271 271 270 268 267 267 268 269 271 273 273 274 275 275 274 273 276 277 275 275 275 275 272 271 271 269 265 266 266 263 261 259 257 257 255 252 250
229 236 241 245 248 253 257 260 264 264 262 260 259 261 263 265 268 269 271 274 275 276 277 277 276 273 274 277 278 279 281 282 282 279 277 276 276 278 280 281 281 279 278 276 273 272 272 271 272 272 271 270 270 270 270 270 269 270 270 271 273 274 273 274 276 278 277 276 275 272 269 268 271 268 263 264 267 266 263 257 254 255 256 253 253
231 237 243 249 253 256 259 260 262 264 264 265 266 268 270 272 274 276 277 275 275 276 277 277 275 273 274 276 276 279 282 285 285 283 282 281 279 280 280 279 277 277 277 276 274 272 271 270 270 270 270 270 270 271 271 271 271 270 270 269 269 271 272 274 276 277 276 275 274 271 268 269 271 269 264 264 267 267 262 255 252 254 254 254 259
230 240 247 254 258 261 263 262 260 260 262 264 267 269 271 274 277 278 278 276 276 278 278 276 274 273 274 275 277 280 282 284 284 284 284 283 281 280 280 278 276 275 275 275 273 271 270 269 269 269 269 268 268 269 268 268 269 269 269 269 270 271 272 273 275 276 277 277 276 274 272 271 270 268 266 266 268 266 261 258 256 256 255 255 259
229 242 250 256 261 262 263 265 264 262 264 265 267 270 273 276 277 277 277 278 278 278 278 276 275 275 276 277 278 279 281 282 282 283 283 283 280 279 278 278 276 275 273 272 272 270 268 268 268 269 269 269 268 268 269 268 268 267 267 267 268 269 270 272 275 276 277 277 276 274 273 274 272 268 266 267 268 268 265 264 264 263 259 256 257
233 248 256 262 264 265 269 274 275 273 273 274 274 276 278 278 278 278 279 279 279 279 278 276 276 278 280 281 282 281 281 282 283 284 283 282 280 278 277 277 275 273 272 272 272 271 271 270 269 268 268 268 267 267 267 267 266 267 267 268 268 268 268 270 272 275 277 277 277 275 274 274 274 270 269 270 272 272 267 264 266 265 259 255 255
255 264 269 271 269 272 277 281 279 278 280 280 279 279 280 280 281 281 280 279 279 279 279 278 279 281 282 282 282 281 281 282 283 284 283 281 280 279 278 277 275 274 273 273 272 273 273 273 272 271 270 270 270 269 268 268 267 267 267 267 267 266 266 267 268 270 272 273 275 275 273 274 274 271 270 271 273 274 269 263 261 259 256 254 252
275 278 279 280 279 280 284 285 285 285 285 284 283 283 284 283 283 284 283 282 282 281 280 280 281 281 281 282 282 282 283 283 283 283 282 280 279 278 278 278 276 275 274 273 273 273 273 273 272 272 273 273 273 273 272 272 271 270 269 268 268 267 266 266 266 267 268 269 270 270 270 271 272 271 270 269 271 274 270 263 259 256 255 254 252
291 290 288 288 288 287 289 290 290 289 287 286 286 286 286 284 283 283 282 281 281 281 280 280 281 281 281 282 283 283 284 284 283 282 282 281 279 278 277 276 275 275 274 274 274 273 272 273 273 274 274 273 273 272 272 272 272 271 271 271 271 271 270 268 266 266 267 267 267 267 267 267 268 269 268 268 270 271 267 264 263 259 256 256 256
297 295 292 292 292 292 292 292 290 288 287 286 286 285 284 283 283 283 283 282 282 282 283 283 283 283 282 282 282 283 283 283 283 282 282 281 280 279 278 276 275 275 275 274 273 272 272 273 274 275 275 274 273 271 270 270 271 271 271 270 271 271 272 271 269 267 267 266 266 266 266 266 267 268 267 266 265 265 266 267 267 265 263 265 266
295 293 294 295 295 294 292 291 289 287 286 284 284 284 285 286 286 287 288 288 286 285 285 285 284 284 283 283 283 282 282 282 282 281 280 280 279 279 278 277 276 275 275 274 273 273 273 274 274 274 275 274 274 272 270 269 269 270 271 271 272 272 272 270 270 270 270 269 269 268 267 267 268 269 268 267 264 263 264 266 268 268 268 268 267
297 297 297 296 295 293 290 287 287 287 287 287 286 287 288 289 289 288 288 289 288 286 286 286 286 286 286 286 286 285 284 284 281 278 276 276 276 276 276 277 277 277 276 276 276 276 276 276 275 275 275 275 274 272 270 269 269 271 272 272 273 273 273 271 270 270 271 271 271 270 269 270 270 269 269 268 267 266 265 265 265 264 263 261 258
300 296 294 291 289 287 286 287 289 290 291 291 290 290 291 290 290 290 290 290 289 288 287 287 287 287 287 287 287 286 286 284 281 278 276 275 275 276 276 277 277 278 278 278 277 277 276 275 274 274 274 274 273 273 271 270 271 271 272 274 276 275 275 274 272 270 270 270 271 270 270 271 270 268 269 269 268 266 264 261 260 259 258 256 252
296 292 290 289 288 290 293 294 295 295 294 294 292 291 292 291 291 291 291 289 289 288 288 289 289 289 288 289 288 287 287 286 284 282 280 278 277 278 279 280 279 279 279 279 277 276 275 274 274 273 273 272 272 273 273 272 272 272 274 277 277 276 274 273 271 271 272 272 271 270 270 271 271 270 270 268 266 263 260 260 260 258 255 252 252
297 294 294 295 294 296 297 295 294 293 293 293 293 292 292 292 292 290 289 288 289 289 289 290 290 289 288 288 287 287 286 286 284 283 282 281 280 280 281 281 281 281 281 281 279 277 276 275 274 274 273 272 273 273 273 273 274 274 277 279 278 276 274 272 271 273 274 271 268 268 268 269 269 269 267 264 261 258 256 257 260 258 254 254 255
300 300 300 300 299 297 296 295 295 295 295 295 294 294 293 293 293 292 290 290 291 292 292 291 290 289 289 289 290 289 287 286 284 284 284 283 282 281 281 281 282 283 284 284 281 279 279 277 276 275 274 273 272 271 270 271 272 274 275 276 278 278 276 273 273 273 272 269 268 268 267 266 265 266 266 264 262 259 255 253 254 255 254 254 255
303 304 302 302 303 302 300 300 300 298 296 296 297 297 296 295 295 294 293 293 294 295 295 295 293 292 292 290 289 288 287 287 287 287 286 286 284 283 283 283 284 285 284 283 280 279 278 276 275 275 275 273 270 268 268 269 271 273 273 274 277 278 276 274 273 270 269 268 268 267 267 266 266 265 265 265 264 263 259 253 251 252 252 252 253
305 304 304 305 307 307 306 304 302 302 299 299 300 299 298 297 296 295 295 295 295 295 297 298 298 297 295 292 290 290 291 291 291 290 290 288 285 283 283 283 285 285 284 282 280 276 274 272 271 272 273 272 270 269 269 270 270 270 270 271 275 277 274 272 271 270 268 268 267 267 268 268 268 266 265 265 265 266 266 260 255 257 257 255 254
309 309 309 309 309 309 308 306 304 304 302 301 301 300 299 299 299 298 298 297 296 295 295 298 300 299 298 297 295 295 296 295 294 293 290 286 281 279 280 281 282 282 281 281 281 279 277 275 273 273 272 271 271 272 273 273 271 268 268 271 273 274 272 269 268 267 267 265 264 267 268 267 268 268 268 268 266 266 268 265 262 265 266 264 260
314 313 310 309 308 306 306 306 304 303 303 303 303 302 303 303 301 300 300 298 296 296 297 300 302 300 299 299 298 296 296 296 296 294 291 289 287 286 285 284 283 283 282 283 283 283 282 281 279 277 275 273 273 273 273 271 269 269 270 272 272 271 269 267 264 264 264 263 264 266 267 266 267 268 269 269 266 263 263 263 262 265 267 265 260
312 308 306 307 306 304 305 305 304 304 304 303 303 303 303 301 298 299 300 300 300 301 302 303 304 302 301 301 299 296 294 293 294 294 293 293 293 292 291 290 288 287 286 285 286 286 286 286 285 283 281 279 277 275 272 269 267 268 269 270 269 267 265 262 261 262 262 261 262 265 266 265 265 266 266 267 265 262 261 260 261 264 268 270 268
306 307 306 307 307 306 306 306 305 305 303 302 302 301 301 300 301 303 304 305 305 306 305 306 309 310 308 304 300 298 295 293 295 297 298 297 296 295 293 291 288 286 284 284 285 286 287 287 286 285 284 282 280 278 275 272 270 268 266 264 263 262 260 257 258 260 260 259 259 262 265 265 263 263 263 261 257 256 257 259 261 265 269 274 276
309 311 310 310 309 308 308 309 309 307 304 305 305 305 305 307 306 308 311 310 308 307 308 308 310 312 311 307 304 302 300 300 301 302 300 298 296 294 292 290 288 287 285 285 286 287 288 288 287 287 285 283 282 280 277 275 274 270 264 261 260 260 258 256 256 256 256 255 256 259 261 261 260 259 262 263 262 263 264 264 265 267 268 271 271
311 312 313 311 309 309 312 313 312 311 308 308 308 308 310 311 310 313 316 314 310 308 306 306 309 314 316 314 311 308 307 307 306 304 302 301 299 297 295 293 291 289 287 287 288 288 289 288 286 285 285 286 288 286 278 274 273 268 262 259 258 257 256 254 252 251 250 250 252 254 254 253 252 254 259 266 274 276 273 269 267 266 264 263 260
312 312 313 311 310 313 315 314 313 310 307 306 307 309 313 316 316 317 318 315 313 314 316 318 321 322 320 319 318 316 314 312 310 307 305 304 302 299 296 293 291 289 289 289 288 287 286 284 284 285 287 292 294 288 277 270 269 269 267 261 254 251 251 249 246 247 249 246 243 243 241 239 241 248 255 261 264 262 259 257 253 250 251 248 242
317 315 315 315 315 317 314 311 310 307 305 309 312 313 317 321 320 317 321 326 326 327 330 330 329 329 328 329 329 326 322 318 316 315 314 313 311 306 299 296 295 294 293 289 284 281 281 282 285 289 293 296 297 292 285 277 272 271 267 254 239 233 235 238 239 241 242 236 228 228 230 231 234 239 243 243 237 229 226 226 224 225 229 229 222
319 318 319 319 318 316 312 311 312 312 313 317 319 320 325 332 333 339 357 354 342 337 338 338 339 342 343 340 336 332 328 324 324 325 327 326 323 317 312 311 310 307 301 292 282 278 279 285 296 302 302 305 309 294 282 267 234 205 207 214 209 198 204 216 221 221 224 224 220 217 218 220 219 214 208 204 197 188 181 179 185 191 187 180 169
320 320 321 319 316 314 313 313 315 316 319 322 326 334 347 2 13 14 9 1 352 347 349 351 355 357 356 352 347 344 340 335 332 331 332 333 332 333 335 333 329 329 332 328 314 306 25 55 52 64 91 101 105 120 144 137 122 116 120 129 118 119 146 157 148 170 190 207 208 195 185 186 178 160 152 151 148 147 146 143 143 140 133 126 121
324 322 321 320 318 316 316 315 316 319 323 325 332 347 359 2 5 8 9 6 360 358 4 9 12 13 14 12 9 6 3 359 353 351 359 23 38 41 42 44 50 59 66 71 75 81 87 86 80 81 88 90 91 95 97 96 94 89 87 88 88 90 98 100 98 102 104 104 108 107 106 112 116 114 114 116 117 119 117 115 116 115 111 108 106
326 323 322 321 320 320 322 321 321 323 327 333 350 4 1 359 2 9 18 19 16 17 23 26 27 30 29 27 27 28 27 26 31 43 57 67 70 72 73 73 73 76 79 80 81 81 82 82 80 80 83 86 87 90 91 91 92 93 93 94 95 96 98 99 100 99 98 97 98 99 101 105 106 103 101 101 103 105 105 106 109 108 105 105 105
329 329 329 327 326 328 328 324 323 327 338 360 19 16 11 17 26 33 41 44 41 38 38 38 40 39 38 38 41 44 45 46 52 60 66 69 71 74 74 70 67 69 72 75 77 78 78 81 83 84 86 87 87 89 91 92 93 94 95 96 96 96 97 98 99 101 102 101 101 102 104 105 105 104 104 104 105 107 107 108 108 107 105 105 105
335 338 341 340 340 341 337 335 342 360 21 28 23 19 27 41 48 52 55 55 53 51 51 52 51 48 48 52 54 54 55 58 62 65 67 69 70 71 69 65 63 64 65 68 73 76 78 83 86 87 88 89 88 88 90 93 94 94 94 94 94 95 96 98 100 102 103 103 104 106 108 109 110 111 108 105 106 110 111 110 109 108 106 105 104
344 348 350 351 352 357 3 13 30 42 41 36 36 42 50 56 60 63 63 62 64 66 66 64 63 62 62 63 63 63 63 64 65 67 69 70 70 70 69 68 68 68 68 70 74 77 78 81 83 85 86 87 87 88 89 90 91 91 91 92 93 94 96 99 102 103 102 101 102 106 108 109 110 111 110 109 110 113 113 111 111 110 110 109 108
356 358 0 1 5 16 30 41 47 50 51 54 58 61 62 66 71 75 77 77 77 76 75 73 71 68 64 62 63 66 66 65 65 65 66 67 68 68 68 69 71 72 72 73 74 76 78 80 82 83 84 85 86 87 88 89 89 89 89 90 90 91 93 96 97 97 96 95 96 99 101 103 103 103 105 107 109 112 112 112 113 115 115 114 112
6 9 10 10 14 25 38 49 58 63 63 63 68 72 75 78 80 82 84 83 82 82 80 76 71 66 63 61 61 61 61 62 63 63 63 64 66 68 69 70 72 74 76 76 75 76 77 79 82 84 85 87 88 89 90 91 91 91 91 91 91 90 90 92 91 91 91 91 91 92 94 94 95 96 98 100 102 104 106 109 112 114 112 109 107
15 20 20 18 25 36 45 55 67 73 72 71 75 79 82 84 84 83 83 83 84 85 81 74 68 65 65 66 65 61 59 59 61 62 62 63 63 65 68 70 72 74 76 78 78 78 79 81 83 85 86 88 88 88 88 88 89 90 90 90 90 90 89 89 88 89 90 91 92 92 92 93 95 97 99 102 103 104 106 110 113 115 113 112 111
29 34 31 32 42 50 56 67 77 80 81 84 86 87 87 87 85 83 83 82 82 81 76 72 70 69 67 67 68 65 62 59 58 57 57 57 57 59 62 66 69 72 75 77 80 80 81 83 84 86 88 89 89 89 88 87 87 87 86 87 88 88 88 88 89 89 90 92 94 95 96 97 100 103 106 107 108 110 112 115 116 116 115 115 116
46 48 48 51 57 62 67 74 80 82 85 92 95 95 94 91 88 86 85 83 81 77 74 71 69 67 65 63 63 61 59 57 56 55 54 53 54 55 57 59 63 67 71 74 77 79 80 83 84 85 87 87 88 90 91 90 89 87 86 85 85 85 84 85 86 88 88 88 90 92 93 95 97 98 101 103 105 106 108 109 109 110 109 108 107
54 55 58 61 64 70 74 77 81 85 90 94 97 98 97 96 94 92 89 86 82 78 74 70 67 64 61 59 57 56 55 55 55 55 56 56 57 57 56 57 60 64 69 72 74 76 78 80 82 83 84 85 87 89 91 91 91 90 88 86 83 80 78 77 78 80 81 82 82 82 84 85 85 84 85 86 86 87 88 88 88 88 87 86 85
63 64 67 71 74 79 81 83 85 89 92 95 97 99 99 97 95 93 91 88 83 78 74 70 66 63 60 57 55 55 55 55 54 55 56 57 57 58 59 61 64 67 70 72 73 74 75 77 79 81 82 84 86 88 89 91 92 92 91 90 88 85 80 75 71 70 70 72 74 75 76 75 73 72 72 73 73 75 76 75 74 77 80 85 91
73 75 79 82 84 86 87 89 91 93 93 94 95 96 95 94 92 91 89 84 79 74 70 67 65 63 61 58 57 55 55 54 54 55 55 55 54 56 60 66 69 70 71 72 73 73 74 75 75 77 78 79 80 81 83 85 86 87 87 87 87 86 84 81 78 75 72 68 67 70 74 76 76 75 74 72 71 72 73 73 75 83 89 90 99
87 91 93 93 92 91 91 92 92 91 90 90 90 89 88 85 83 80 76 70 65 62 60 59 62 63 61 59 58 55 53 51 51 54 56 58 56 55 57 62 66 67 68 69 69 69 69 69 70 70 71 72 73 74 74 75 76 76 75 74 74 77 80 84 88 90 86 80 77 75 75 77 79 79 76 74 74 76 78 81 84 84 72 58 68
100 101 99 97 93 90 87 86 84 83 83 82 81 81 79 75 72 68 63 58 56 55 54 53 54 55 55 55 55 55 55 54 54 54 57 61 62 60 58 59 60 61 63 64 64 64 64 63 63 63 64 64 66 67 67 67 68 68 68 69 69 68 69 72 78 84 84 84 87 88 88 89 90 84 76 71 71 71 70 68 67 64 54 46 51
105 104 103 100 96 90 85 82 79 77 75 73 71 70 68 65 63 62 59 56 54 54 54 53 51 49 49 49 48 49 53 57 60 62 64 65 66 66 64 63 62 62 62 62 61 61 62 62 63 63 64 64 64 65 65 66 68 69 71 73 71 67 62 61 68 77 76 71 67 65 66 72 81 85 84 82 79 76 76 72 67 63 56 49 50
106 108 107 104 99 92 86 83 78 72 67 65 64 64 64 63 61 59 58 58 57 55 54 54 52 53 54 53 50 50 50 52 55 60 63 64 64 63 62 62 62 63 63 63 62 62 62 62 63 64 65 65 66 67 68 69 70 69 69 68 67 65 62 62 68 77 78 72 67 66 65 64 63 64 70 74 74 76 78 73 61 50 44 48 56
105 109 109 105 97 90 85 82 79 76 75 73 70 67 65 63 61 59 57 57 56 55 56 56 54 53 53 53 53 54 54 53 54 55 55 55 56 55 55 56 57 57 59 60 60 61 61 61 60 61 61 62 62 62 63 64 64 62 61 61 60 60 59 60 64 72 74 71 70 74 79 79 76 72 67 62 56 57 67 70 61 48 34 32 42
98 101 99 92 80 69 63 61 63 67 71 73 72 70 67 66 64 61 58 56 55 53 54 57 57 56 56 55 55 55 54 54 54 54 53 52 51 50 50 51 51 52 54 55 55 55 54 54 54 54 53 53 53 53 52 52 53 54 53 54 54 55 55 53 52 56 61 63 64 63 62 64 70 75 76 71 60 50 49 54 58 54 37 20 26